カタログに戻る

IRIDIUM 911

運用中通信PO
NORAD 24842·PAYLOAD·🇺🇸 United States

打ち上げ Jun 18, 1997 から Baikonur Cosmodrome

Loading…

次のパス (今後24時間)

TLE

最新Source: Space-Track

元期: Sep 14, 2026, 13:42 UTC

1 24842U 97030G   26257.57098428  .00000382  00000-0  96830-4 0  9997
2 24842  86.4500  12.5266 0014979  29.9217 330.2840 14.48178239540834

AllMySatでIRIDIUM 911をリアルタイム追跡

Download on the App Store